TimeEST,TemperatureF,Dew PointF,Humidity,Sea Level PressureIn,VisibilityMPH,Wind Direction,Wind SpeedMPH,Gust SpeedMPH,PrecipitationIn,Events,Conditions,WindDirDegrees,DateUTC
12:54 AM,28.9,19.0,67,30.18,10.0,NE,3.5,-,N/A,,Overcast,40,2013-01-06 05:54:00
1:54 AM,30.9,21.9,69,30.22,10.0,West,3.5,-,N/A,,Overcast,260,2013-01-06 06:54:00
2:54 AM,30.9,21.0,67,30.19,10.0,Calm,Calm,-,N/A,,Overcast,0,2013-01-06 07:54:00
3:54 AM,30.9,19.9,64,30.16,10.0,SW,4.6,-,N/A,,Overcast,220,2013-01-06 08:54:00
4:54 AM,30.9,19.9,64,30.13,10.0,SSW,4.6,-,0.00,,Overcast,210,2013-01-06 09:54:00
5:54 AM,30.0,21.0,69,30.11,9.0,SW,8.1,-,0.00,Snow,Light Snow,220,2013-01-06 10:54:00
6:54 AM,30.0,24.1,79,30.09,9.0,SSW,5.8,-,0.00,Snow,Light Snow,210,2013-01-06 11:54:00
7:54 AM,30.9,26.1,82,30.08,10.0,SW,8.1,-,0.00,,Overcast,220,2013-01-06 12:54:00
8:54 AM,32.0,27.0,82,30.07,9.0,SW,13.8,-,N/A,,Scattered Clouds,220,2013-01-06 13:54:00
9:54 AM,35.1,27.0,72,30.05,9.0,SW,13.8,-,N/A,,Partly Cloudy,230,2013-01-06 14:54:00
10:54 AM,37.0,26.1,65,30.02,9.0,WSW,18.4,25.3,N/A,,Clear,240,2013-01-06 15:54:00
11:54 AM,39.9,26.1,58,29.98,10.0,WSW,17.3,24.2,N/A,,Clear,240,2013-01-06 16:54:00
12:54 PM,42.1,26.1,53,29.96,10.0,WSW,8.1,-,N/A,,Clear,240,2013-01-06 17:54:00
1:54 PM,42.1,26.1,53,29.95,10.0,West,9.2,-,N/A,,Clear,260,2013-01-06 18:54:00
2:54 PM,43.0,25.0,49,29.95,10.0,West,10.4,19.6,N/A,,Clear,280,2013-01-06 19:54:00
3:54 PM,41.0,25.0,53,29.94,10.0,WNW,11.5,16.1,N/A,,Clear,300,2013-01-06 20:54:00
4:54 PM,39.9,25.0,55,29.96,10.0,WNW,5.8,-,N/A,,Clear,300,2013-01-06 21:54:00
5:54 PM,39.0,25.0,57,29.96,10.0,West,5.8,-,N/A,,Partly Cloudy,270,2013-01-06 22:54:00
6:54 PM,39.0,26.1,60,29.97,10.0,SW,4.6,-,N/A,,Overcast,230,2013-01-06 23:54:00
7:54 PM,37.0,26.1,65,29.97,10.0,Variable,5.8,-,N/A,,Overcast,0,2013-01-07 00:54:00
8:54 PM,36.0,27.0,70,29.97,9.0,SSW,3.5,-,N/A,,Overcast,200,2013-01-07 01:54:00
9:54 PM,36.0,27.0,70,29.97,10.0,SSW,5.8,-,N/A,,Overcast,210,2013-01-07 02:54:00
10:54 PM,37.9,27.0,65,29.96,10.0,West,9.2,-,N/A,,Overcast,260,2013-01-07 03:54:00
11:54 PM,34.0,25.0,70,29.96,10.0,SSW,6.9,-,N/A,,Scattered Clouds,210,2013-01-07 04:54:00